Location: Newark
(41.7772°N, 74.7403°W)
Time: 13:09:38
(UTC+00:00)

Transit 4A - Pass Details

Date: 01 June 2020
Orbit: 866 x 978 km, 66.8° (Epoch: 06 July)

Event Time Altitude Azimuth Distance (km) Brightness Sun altitude
Exits shadow 05:46:29 50° 137° (SE) 1,105 8.0 -25.1°
Maximum altitude 05:47:08 52° 114° (ESE) 1,074 8.1 -25.0°
Drops below altitude 10° 05:52:49 10° 39° (NE) 2,553 11.1 -24.8°
Sets 05:55:23 0° 35° (NE) 3,510 12.1 -24.7°
